Regional Weather Roundup
Issued by NWS

Home | Current Version | Previous Version | Text Only | Print | Product List | Glossary Off
Versions: 1 2 3 4 5 6 7 8 9 10 11 12 13 14 15 16 17 18 19 20 21 22 23 24 25 26 27 28 29 30 31 32 33 34 35 36 37 38 39 40 41 42 43 44 45 46 47 48 49 50

000
ASUS43 KFSD 240710
RWRSD

WEATHER ROUNDUP FOR SOUTH DAKOTA
NATIONAL WEATHER SERVICE SIOUX FALLS SD
200 AM CDT FRI OCT 24 2014

NOTE: "FAIR" INDICATES FEW OR NO CLOUDS BELOW 12,000 FEET WITH NO
SIGNIFICANT WEATHER AND/OR OBSTRUCTIONS TO VISIBILITY.


SDZ001>005-009-010-012>017-240800-
NORTHWEST AND NORTH CENTRAL SOUTH DAKOTA

CITY           SKY/WX    TMP DP  RH WIND       PRES   REMARKS
BUFFALO          N/A     48  28  46 W7        29.81F
FAITH            N/A     52  26  36 W7        29.87F
MOBRIDGE       CLOUDY    45  40  82 CALM      29.83S
$$

SDZ012>016-024>037-041>051-057-063-072>074-240800-
SOUTHWEST AND SOUTH CENTRAL SOUTH DAKOTA

CITY           SKY/WX    TMP DP  RH WIND       PRES   REMARKS
RAPID CTY ARPT CLOUDY    47  33  58 W6        29.92S
PIERRE         CLOUDY    44  36  73 W10       29.86R
CUSTER         CLOUDY    51  26  37 W7        30.02S
ELLSWORTH AFB  CLOUDY    49  33  55 W7        29.91F
PHILIP         MOCLDY    43  32  65 W10       29.89R
PINE RIDGE     CLOUDY    37  33  85 E3        29.94S
SPEARFISH      FAIR      48  30  49 SW6       29.94S
WINNER         FAIR      54  35  48 SW8       29.88R
$$

SDZ004>011-016>023-039-040-240800-
NORTHEAST SOUTH DAKOTA

CITY           SKY/WX    TMP DP  RH WIND       PRES   REMARKS
ABERDEEN       CLOUDY    39  38  96 CALM      29.84S
WATERTOWN      MOCLDY    47  43  86 S7        29.85F
SISSETON         N/A     49  44  83 SE6       29.83S
$$

SDZ017-020-022-023-036>040-048>070-240800-
SOUTHEAST SOUTH DAKOTA

CITY           SKY/WX    TMP DP  RH WIND       PRES   REMARKS
SIOUX FALLS    MOCLDY    55  49  80 S12       29.88F
HURON          MOCLDY    50  46  86 SE6       29.83F
CHAMBERLAIN    MOCLDY    49  38  65 W3        29.85R
MITCHELL       MOCLDY    47  46  97 SE3       29.84F
YANKTON        PTCLDY    61  54  77 S9        29.89S
$$

ABBREVIATIONS USED IN REMARKS
   TC - TEMPERATURE IN CELSIUS
  WCI - WIND CHILL INDEX
   HX - HEAT INDEX
  VSB - VISIBILITY




USA.gov is the U.S. government's official web portal to all federal, state and local government web resources and services.